NJE626L LKPR-EGLF

Flight info

Callsign NJE626L
Flight time 1h 40m
Altitude 40000
Route BALTU DCT DONAD DCT RAPET Z93 KODUK DCT MARZA DCT LOHRE DCT ADKUV DCT SOGRI L608 DENUT L610 LAM L179 ICTAM Q63 CPT
Aircraft CL60/M-SBDE1E2E3FGHIJ1J3J4J7P2RWXYZ/LB1D1

Departure

Time 2026-04-23 13:24
Airport Václav Havel Airport Prague (LKPR)

Arrival

Time 2026-04-23 15:04
Airport Farnborough Airport (EGLF)
Time Latitude Longitude Altitude Speed Heading
2026-04-23 12:58 50.09922 14.28554 1197 ft 0 kts 187°
2026-04-23 13:20 50.09903 14.28550 1198 ft 4 kts 188°
2026-04-23 13:20 50.09884 14.28504 1198 ft 6 kts 260°
2026-04-23 13:20 50.09854 14.28442 1199 ft 8 kts 179°
2026-04-23 13:20 50.09789 14.28450 1201 ft 9 kts 204°
2026-04-23 13:21 50.09764 14.28352 1202 ft 11 kts 260°
2026-04-23 13:21 50.09747 14.28215 1203 ft 14 kts 258°
2026-04-23 13:21 50.09726 14.28056 1204 ft 15 kts 257°
2026-04-23 13:21 50.09704 14.27878 1205 ft 17 kts 258°
2026-04-23 13:22 50.09679 14.27735 1208 ft 9 kts 237°
2026-04-23 13:22 50.09624 14.27684 1209 ft 10 kts 175°
2026-04-23 13:22 50.09547 14.27781 1212 ft 17 kts 135°
2026-04-23 13:22 50.09454 14.27923 1215 ft 19 kts 135°
2026-04-23 13:23 50.09352 14.28081 1219 ft 21 kts 135°
2026-04-23 13:23 50.09250 14.28240 1222 ft 14 kts 136°
2026-04-23 13:23 50.09156 14.28269 1224 ft 14 kts 209°
2026-04-23 13:23 50.09090 14.28147 1226 ft 15 kts 259°
2026-04-23 13:24 50.09143 14.27963 1225 ft 33 kts 307°
2026-04-23 13:24 50.09463 14.27307 1219 ft 118 kts 306°
2026-04-23 13:24 50.10042 14.26137 1662 ft 147 kts 306°
2026-04-23 13:24 50.10668 14.24839 2405 ft 158 kts 306°
2026-04-23 13:25 50.11327 14.23456 3214 ft 169 kts 309°
2026-04-23 13:25 50.12079 14.21906 3916 ft 193 kts 309°
2026-04-23 13:25 50.12915 14.20182 4721 ft 211 kts 309°
2026-04-23 13:25 50.13863 14.18227 5391 ft 235 kts 310°
2026-04-23 13:26 50.14867 14.16146 6450 ft 254 kts 310°
2026-04-23 13:26 50.15906 14.13988 7979 ft 259 kts 310°
2026-04-23 13:26 50.16964 14.11783 9593 ft 261 kts 311°
2026-04-23 13:26 50.18037 14.09552 11000 ft 268 kts 311°
2026-04-23 13:27 50.19163 14.07210 12369 ft 276 kts 311°
2026-04-23 13:27 50.20330 14.04785 13415 ft 293 kts 312°
2026-04-23 13:27 50.21517 14.02152 14435 ft 312 kts 304°
2026-04-23 13:27 50.22281 13.98909 15596 ft 331 kts 286°
2026-04-23 13:28 50.22253 13.95252 16751 ft 352 kts 263°
2026-04-23 13:28 50.21540 13.91581 17787 ft 365 kts 257°
2026-04-23 13:28 50.20732 13.87772 18776 ft 373 kts 257°
2026-04-23 13:28 50.19923 13.83942 19709 ft 381 kts 257°
2026-04-23 13:29 50.19083 13.79973 20638 ft 389 kts 257°
2026-04-23 13:29 50.18234 13.75961 21477 ft 398 kts 257°
2026-04-23 13:29 50.17356 13.71823 22309 ft 406 kts 257°
2026-04-23 13:29 50.16468 13.67643 23119 ft 413 kts 257°
2026-04-23 13:30 50.15556 13.63364 23941 ft 420 kts 257°
2026-04-23 13:30 50.14625 13.59003 24740 ft 426 kts 256°
2026-04-23 13:30 50.13691 13.54633 25515 ft 433 kts 256°
2026-04-23 13:30 50.12740 13.50192 26279 ft 438 kts 256°
2026-04-23 13:31 50.11759 13.45623 26994 ft 444 kts 256°
2026-04-23 13:31 50.10784 13.41095 27690 ft 449 kts 256°
2026-04-23 13:31 50.09784 13.36451 28325 ft 455 kts 256°
2026-04-23 13:31 50.08983 13.31702 28953 ft 453 kts 267°
2026-04-23 13:32 50.08779 13.26833 29500 ft 455 kts 273°
2026-04-23 13:32 50.08662 13.21890 30087 ft 459 kts 273°
2026-04-23 13:32 50.08533 13.16880 30660 ft 463 kts 273°
2026-04-23 13:32 50.08402 13.11878 31169 ft 468 kts 273°
2026-04-23 13:33 50.08268 13.06849 31688 ft 471 kts 272°
2026-04-23 13:33 50.08152 13.01768 32165 ft 473 kts 275°
2026-04-23 13:33 50.08400 12.96579 32621 ft 469 kts 285°
2026-04-23 13:33 50.09135 12.91606 33006 ft 467 kts 292°
2026-04-23 13:34 50.10016 12.86719 33406 ft 471 kts 292°
2026-04-23 13:34 50.10918 12.81701 33793 ft 474 kts 292°
2026-04-23 13:34 50.11807 12.76689 34220 ft 476 kts 291°
2026-04-23 13:34 50.12658 12.71734 34763 ft 475 kts 291°
2026-04-23 13:35 50.13509 12.66736 35380 ft 472 kts 291°
2026-04-23 13:35 50.14349 12.61768 36041 ft 467 kts 291°
2026-04-23 13:35 50.15163 12.56935 36657 ft 463 kts 291°
2026-04-23 13:35 50.15983 12.52038 37176 ft 461 kts 290°
2026-04-23 13:36 50.16785 12.47230 37623 ft 460 kts 290°
2026-04-23 13:36 50.17582 12.42428 38048 ft 459 kts 290°
2026-04-23 13:36 50.18364 12.37624 38420 ft 460 kts 289°
2026-04-23 13:36 50.18904 12.32665 38791 ft 464 kts 280°
2026-04-23 13:37 50.19043 12.27644 39114 ft 467 kts 274°
2026-04-23 13:37 50.19021 12.22605 39467 ft 467 kts 273°
2026-04-23 13:37 50.19001 12.17560 39784 ft 466 kts 273°
2026-04-23 13:37 50.18979 12.12459 40098 ft 465 kts 273°
2026-04-23 13:38 50.18956 12.07464 40264 ft 467 kts 273°
2026-04-23 13:38 50.18903 11.97218 40255 ft 478 kts 273°
2026-04-23 13:39 50.18839 11.86795 40272 ft 482 kts 272°
2026-04-23 13:39 50.18888 11.76333 40271 ft 482 kts 275°
2026-04-23 13:40 50.19034 11.65860 40268 ft 482 kts 275°
2026-04-23 13:40 50.19170 11.55379 40262 ft 481 kts 275°
2026-04-23 13:41 50.19296 11.44946 40252 ft 481 kts 275°
2026-04-23 13:41 50.19413 11.34560 40249 ft 482 kts 274°
2026-04-23 13:42 50.19520 11.24118 40249 ft 481 kts 273°
2026-04-23 13:42 50.19619 11.13587 40247 ft 481 kts 273°
2026-04-23 13:43 50.19708 11.03138 40253 ft 481 kts 273°
2026-04-23 13:43 50.19664 10.92753 40257 ft 483 kts 267°
2026-04-23 13:44 50.18808 10.82334 40262 ft 484 kts 265°
2026-04-23 13:44 50.17917 10.71890 40272 ft 484 kts 264°
2026-04-23 13:45 50.17176 10.63284 40273 ft 484 kts 264°
2026-04-23 13:45 50.16118 10.51106 40277 ft 483 kts 264°
2026-04-23 13:46 50.15213 10.40791 40284 ft 483 kts 264°
2026-04-23 13:46 50.14293 10.30412 40285 ft 483 kts 263°
2026-04-23 13:47 50.13363 10.20039 40290 ft 483 kts 263°
2026-04-23 13:47 50.12872 10.09579 40280 ft 481 kts 274°
2026-04-23 13:48 50.13864 9.99327 40274 ft 477 kts 288°
2026-04-23 13:48 50.15836 9.89494 40273 ft 476 kts 290°
2026-04-23 13:49 50.17845 9.79617 40278 ft 475 kts 290°
2026-04-23 13:49 50.19834 9.69796 40281 ft 475 kts 290°
2026-04-23 13:50 50.21816 9.59959 40281 ft 475 kts 290°
2026-04-23 13:50 50.23779 9.50165 40289 ft 475 kts 290°
2026-04-23 13:51 50.25740 9.40328 40296 ft 475 kts 290°
2026-04-23 13:51 50.27694 9.30483 40292 ft 475 kts 289°
2026-04-23 13:52 50.29637 9.20643 40293 ft 475 kts 289°
2026-04-23 13:52 50.31570 9.10801 40306 ft 475 kts 289°
2026-04-23 13:53 50.33505 9.00900 40303 ft 475 kts 289°
2026-04-23 13:53 50.35432 8.90989 40304 ft 475 kts 288°
2026-04-23 13:54 50.37338 8.81134 40308 ft 475 kts 288°
2026-04-23 13:54 50.39239 8.71252 40297 ft 475 kts 288°
2026-04-23 13:55 50.41148 8.61278 40303 ft 475 kts 288°
2026-04-23 13:55 50.43025 8.51420 40303 ft 476 kts 288°
2026-04-23 13:56 50.44917 8.41427 40312 ft 475 kts 288°
2026-04-23 13:56 50.46792 8.31477 40312 ft 475 kts 287°
2026-04-23 13:57 50.48656 8.21527 40315 ft 475 kts 287°
2026-04-23 13:57 50.50514 8.11564 40314 ft 476 kts 287°
2026-04-23 13:58 50.52362 8.01590 40327 ft 475 kts 287°
2026-04-23 13:58 50.54206 7.91592 40313 ft 474 kts 287°
2026-04-23 13:59 50.56039 7.81593 40323 ft 474 kts 287°
2026-04-23 13:59 50.57860 7.71613 40324 ft 475 kts 287°
2026-04-23 14:00 50.59381 7.63231 40324 ft 476 kts 286°
2026-04-23 14:00 50.61496 7.51516 40319 ft 476 kts 286°
2026-04-23 14:01 50.63307 7.41420 40322 ft 476 kts 286°
2026-04-23 14:01 50.65099 7.31379 40323 ft 476 kts 285°
2026-04-23 14:02 50.66881 7.21332 40330 ft 477 kts 285°
2026-04-23 14:02 50.68663 7.11227 40328 ft 477 kts 285°
2026-04-23 14:03 50.70426 7.01181 40347 ft 477 kts 285°
2026-04-23 14:03 50.72191 6.91059 40349 ft 477 kts 285°
2026-04-23 14:04 50.73962 6.80848 40350 ft 476 kts 285°
2026-04-23 14:04 50.75716 6.70672 40352 ft 477 kts 285°
2026-04-23 14:05 50.77449 6.60563 40347 ft 477 kts 285°
2026-04-23 14:05 50.79189 6.50354 40354 ft 478 kts 285°
2026-04-23 14:06 50.80922 6.40124 40353 ft 479 kts 284°
2026-04-23 14:06 50.82632 6.29973 40354 ft 479 kts 284°
2026-04-23 14:07 50.84331 6.19820 40365 ft 479 kts 284°
2026-04-23 14:07 50.86879 6.04493 40360 ft 479 kts 284°
2026-04-23 14:08 50.88565 5.94272 40366 ft 480 kts 284°
2026-04-23 14:08 50.90242 5.84046 40373 ft 480 kts 283°
2026-04-23 14:09 50.91904 5.73847 40371 ft 480 kts 283°
2026-04-23 14:09 50.93558 5.63638 40369 ft 481 kts 283°
2026-04-23 14:10 50.95216 5.53336 40365 ft 481 kts 283°
2026-04-23 14:10 50.96861 5.43056 40369 ft 482 kts 283°
2026-04-23 14:11 50.98506 5.32714 40362 ft 482 kts 282°
2026-04-23 14:11 51.00145 5.22338 40372 ft 483 kts 282°
2026-04-23 14:12 51.01765 5.12023 40376 ft 482 kts 282°
2026-04-23 14:12 51.03380 5.01675 40376 ft 483 kts 282°
2026-04-23 14:13 51.04991 4.91283 40383 ft 485 kts 282°
2026-04-23 14:13 51.06587 4.80921 40385 ft 484 kts 282°
2026-04-23 14:14 51.08203 4.70363 40398 ft 483 kts 282°
2026-04-23 14:14 51.09784 4.59968 40388 ft 482 kts 282°
2026-04-23 14:15 51.11347 4.49623 40381 ft 481 kts 282°
2026-04-23 14:15 51.12902 4.39260 40389 ft 480 kts 282°
2026-04-23 14:16 51.14444 4.28921 40389 ft 480 kts 281°
2026-04-23 14:16 51.15971 4.18610 40380 ft 480 kts 281°
2026-04-23 14:17 51.17484 4.08329 40379 ft 479 kts 281°
2026-04-23 14:17 51.18994 3.97995 40365 ft 478 kts 281°
2026-04-23 14:18 51.20493 3.87671 40381 ft 479 kts 281°
2026-04-23 14:18 51.21972 3.77413 40379 ft 478 kts 281°
2026-04-23 14:19 51.23468 3.66963 40386 ft 477 kts 281°
2026-04-23 14:19 51.24865 3.56637 40383 ft 476 kts 280°
2026-04-23 14:20 51.26237 3.46291 40387 ft 476 kts 280°
2026-04-23 14:20 51.27603 3.35844 40398 ft 476 kts 280°
2026-04-23 14:21 51.28930 3.25525 40396 ft 475 kts 279°
2026-04-23 14:21 51.30255 3.15141 40408 ft 474 kts 279°
2026-04-23 14:22 51.31572 3.04748 40400 ft 474 kts 279°
2026-04-23 14:22 51.32874 2.94393 40408 ft 474 kts 279°
2026-04-23 14:23 51.34167 2.84031 40417 ft 473 kts 279°
2026-04-23 14:23 51.35448 2.73691 40408 ft 474 kts 279°
2026-04-23 14:24 51.36720 2.63393 40403 ft 474 kts 279°
2026-04-23 14:24 51.37988 2.53046 40413 ft 474 kts 279°
2026-04-23 14:25 51.39240 2.42754 40412 ft 474 kts 279°
2026-04-23 14:25 51.40486 2.32428 40417 ft 474 kts 279°
2026-04-23 14:26 51.41743 2.22019 40413 ft 474 kts 279°
2026-04-23 14:26 51.43010 2.11648 40402 ft 474 kts 279°
2026-04-23 14:27 51.44258 2.01341 40426 ft 473 kts 279°
2026-04-23 14:27 51.45484 1.91005 40410 ft 473 kts 279°
2026-04-23 14:28 51.46692 1.80653 40401 ft 472 kts 279°
2026-04-23 14:28 51.47881 1.70346 40429 ft 472 kts 279°
2026-04-23 14:29 51.49066 1.59998 40412 ft 472 kts 279°
2026-04-23 14:29 51.50232 1.49727 40416 ft 472 kts 279°
2026-04-23 14:30 51.51398 1.39376 40417 ft 471 kts 280°
2026-04-23 14:30 51.52555 1.29025 40413 ft 471 kts 279°
2026-04-23 14:31 51.53704 1.18652 40419 ft 470 kts 279°
2026-04-23 14:31 51.54839 1.08314 40117 ft 476 kts 279°
2026-04-23 14:32 51.55404 1.03131 39526 ft 476 kts 279°
2026-04-23 14:32 51.55977 0.97858 38883 ft 473 kts 278°
2026-04-23 14:32 51.56540 0.92653 38220 ft 472 kts 278°
2026-04-23 14:32 51.57098 0.87471 37558 ft 474 kts 278°
2026-04-23 14:33 51.57659 0.82235 36913 ft 475 kts 278°
2026-04-23 14:33 51.58215 0.77032 36284 ft 477 kts 278°
2026-04-23 14:33 51.58770 0.71805 35780 ft 479 kts 278°
2026-04-23 14:33 51.59327 0.66547 35237 ft 481 kts 277°
2026-04-23 14:34 51.59888 0.61215 34651 ft 483 kts 277°
2026-04-23 14:34 51.60445 0.55902 33964 ft 485 kts 277°
2026-04-23 14:34 51.61003 0.50557 33272 ft 484 kts 278°
2026-04-23 14:34 51.61552 0.45282 32611 ft 479 kts 278°
2026-04-23 14:35 51.62096 0.40029 31965 ft 473 kts 278°
2026-04-23 14:35 51.62635 0.34800 31332 ft 468 kts 277°
2026-04-23 14:35 51.63158 0.29705 30732 ft 463 kts 277°
2026-04-23 14:35 51.63675 0.24636 30104 ft 460 kts 277°
2026-04-23 14:36 51.64187 0.19601 29504 ft 454 kts 277°
2026-04-23 14:36 51.64454 0.14644 28928 ft 445 kts 265°
2026-04-23 14:36 51.64047 0.09720 28293 ft 438 kts 258°
2026-04-23 14:36 51.63530 0.04952 27732 ft 432 kts 258°
2026-04-23 14:37 51.63029 0.00271 27169 ft 428 kts 259°
2026-04-23 14:37 51.62519 -0.04467 26600 ft 424 kts 259°
2026-04-23 14:37 51.62017 -0.09109 26042 ft 420 kts 259°
2026-04-23 14:37 51.61566 -0.13700 25486 ft 418 kts 261°
2026-04-23 14:38 51.61189 -0.18313 24909 ft 414 kts 262°
2026-04-23 14:38 51.60817 -0.22860 24359 ft 411 kts 262°
2026-04-23 14:38 51.60440 -0.27435 23807 ft 408 kts 262°
2026-04-23 14:38 51.60068 -0.31924 23274 ft 405 kts 262°
2026-04-23 14:39 51.59697 -0.36372 22739 ft 403 kts 263°
2026-04-23 14:39 51.59325 -0.40817 22210 ft 400 kts 263°
2026-04-23 14:39 51.58953 -0.45238 21683 ft 397 kts 263°
2026-04-23 14:39 51.58585 -0.49591 21159 ft 395 kts 263°
2026-04-23 14:40 51.58213 -0.53968 20638 ft 392 kts 263°
2026-04-23 14:40 51.57847 -0.58257 20118 ft 389 kts 264°
2026-04-23 14:40 51.57481 -0.62521 19609 ft 386 kts 264°
2026-04-23 14:40 51.57113 -0.66795 19040 ft 385 kts 263°
2026-04-23 14:41 51.56745 -0.71059 18306 ft 383 kts 263°
2026-04-23 14:41 51.56386 -0.75188 17774 ft 375 kts 263°
2026-04-23 14:41 51.56027 -0.79302 17257 ft 368 kts 263°
2026-04-23 14:41 51.55674 -0.83321 16760 ft 361 kts 263°
2026-04-23 14:42 51.55326 -0.87273 16284 ft 355 kts 263°
2026-04-23 14:42 51.54985 -0.91139 15817 ft 349 kts 263°
2026-04-23 14:42 51.54645 -0.94970 15350 ft 344 kts 262°
2026-04-23 14:42 51.54309 -0.98742 14900 ft 339 kts 262°
2026-04-23 14:43 51.53976 -1.02472 14446 ft 335 kts 262°
2026-04-23 14:43 51.53646 -1.06144 14005 ft 331 kts 262°
2026-04-23 14:43 51.53324 -1.09729 13581 ft 327 kts 262°
2026-04-23 14:43 51.52985 -1.13323 13056 ft 327 kts 258°
2026-04-23 14:44 51.52110 -1.16598 12690 ft 317 kts 232°
2026-04-23 14:44 51.50517 -1.18943 12243 ft 309 kts 207°
2026-04-23 14:44 51.48516 -1.19988 11748 ft 300 kts 182°
2026-04-23 14:44 51.46472 -1.19691 11278 ft 291 kts 160°
2026-04-23 14:45 51.45242 -1.18905 10933 ft 288 kts 151°
2026-04-23 14:45 51.42886 -1.17040 10482 ft 279 kts 151°
2026-04-23 14:45 51.41143 -1.15671 10101 ft 276 kts 151°
2026-04-23 14:45 51.39453 -1.14345 9730 ft 270 kts 151°
2026-04-23 14:46 51.37802 -1.13052 9381 ft 258 kts 151°
2026-04-23 14:46 51.36216 -1.11811 9067 ft 251 kts 151°
2026-04-23 14:46 51.34768 -1.10379 8727 ft 241 kts 133°
2026-04-23 14:46 51.33763 -1.08293 8408 ft 232 kts 122°
2026-04-23 14:47 51.32870 -1.06184 8095 ft 227 kts 123°
2026-04-23 14:47 51.31996 -1.04145 7829 ft 223 kts 123°
2026-04-23 14:47 51.31115 -1.02091 7502 ft 222 kts 123°
2026-04-23 14:47 51.30248 -1.00071 7214 ft 220 kts 123°
2026-04-23 14:48 51.29385 -0.98061 6909 ft 218 kts 123°
2026-04-23 14:48 51.28527 -0.96067 6624 ft 215 kts 123°
2026-04-23 14:48 51.27689 -0.94118 6342 ft 213 kts 123°
2026-04-23 14:48 51.26846 -0.92161 6060 ft 210 kts 123°
2026-04-23 14:49 51.26030 -0.90268 5785 ft 208 kts 123°
2026-04-23 14:49 51.25215 -0.88380 5501 ft 206 kts 122°
2026-04-23 14:49 51.24408 -0.86510 5227 ft 205 kts 122°
2026-04-23 14:49 51.23648 -0.84595 4956 ft 202 kts 111°
2026-04-23 14:50 51.23243 -0.82467 4755 ft 197 kts 103°
2026-04-23 14:50 51.22901 -0.80379 4627 ft 199 kts 104°
2026-04-23 14:50 51.22540 -0.78216 4435 ft 200 kts 104°
2026-04-23 14:50 51.22181 -0.76078 4275 ft 199 kts 104°
2026-04-23 14:51 51.21827 -0.73967 4106 ft 198 kts 104°
2026-04-23 14:51 51.21468 -0.71837 3935 ft 198 kts 104°
2026-04-23 14:51 51.21113 -0.69724 3758 ft 198 kts 103°
2026-04-23 14:51 51.21089 -0.67594 3587 ft 191 kts 75°
2026-04-23 14:52 51.21695 -0.65753 3424 ft 187 kts 59°
2026-04-23 14:52 51.22410 -0.64076 3255 ft 180 kts 59°
2026-04-23 14:52 51.23084 -0.62472 3110 ft 172 kts 59°
2026-04-23 14:52 51.23761 -0.60857 2947 ft 175 kts 59°
2026-04-23 14:53 51.24701 -0.59638 2821 ft 183 kts 21°
2026-04-23 14:53 51.26004 -0.59641 2854 ft 192 kts 355°
2026-04-23 14:53 51.27298 -0.60344 2924 ft 200 kts 338°
2026-04-23 14:53 51.28422 -0.61657 2878 ft 205 kts 318°
2026-04-23 14:54 51.29236 -0.63558 2890 ft 209 kts 296°
2026-04-23 14:54 51.29583 -0.65806 2864 ft 211 kts 274°
2026-04-23 14:54 51.29543 -0.68130 2861 ft 211 kts 266°
2026-04-23 14:54 51.29468 -0.70476 2843 ft 211 kts 267°
2026-04-23 14:55 51.29397 -0.72817 2835 ft 211 kts 267°
2026-04-23 14:55 51.29324 -0.75194 2819 ft 211 kts 267°
2026-04-23 14:55 51.29252 -0.77543 2813 ft 211 kts 266°
2026-04-23 14:55 51.29179 -0.79877 2802 ft 212 kts 266°
2026-04-23 14:56 51.29107 -0.82205 2788 ft 212 kts 266°
2026-04-23 14:56 51.29033 -0.84556 2773 ft 211 kts 267°
2026-04-23 14:56 51.28959 -0.86916 2759 ft 211 kts 267°
2026-04-23 14:56 51.28885 -0.89243 2757 ft 211 kts 267°
2026-04-23 14:57 51.28810 -0.91598 2742 ft 211 kts 267°
2026-04-23 14:57 51.28735 -0.93915 2735 ft 211 kts 267°
2026-04-23 14:57 51.28660 -0.96256 2719 ft 211 kts 267°
2026-04-23 14:57 51.28584 -0.98599 2709 ft 211 kts 267°
2026-04-23 14:58 51.28507 -1.00941 2692 ft 211 kts 267°
2026-04-23 14:58 51.28430 -1.03285 2690 ft 211 kts 267°
2026-04-23 14:58 51.28120 -1.05545 2671 ft 208 kts 237°
2026-04-23 14:58 51.27013 -1.06894 2655 ft 195 kts 187°
2026-04-23 14:59 51.25753 -1.06566 2652 ft 182 kts 148°
2026-04-23 14:59 51.24650 -1.05574 2625 ft 182 kts 145°
2026-04-23 14:59 51.23632 -1.04423 2595 ft 178 kts 134°
2026-04-23 14:59 51.22792 -1.02959 2576 ft 177 kts 123°
2026-04-23 15:00 51.22361 -1.01875 2553 ft 175 kts 115°
2026-04-23 15:00 51.21770 -0.99485 2522 ft 173 kts 103°
2026-04-23 15:00 51.21612 -0.97593 2499 ft 172 kts 90°
2026-04-23 15:00 51.21734 -0.95696 2493 ft 172 kts 78°
2026-04-23 15:01 51.22111 -0.93940 2471 ft 157 kts 68°
2026-04-23 15:01 51.22595 -0.92433 2466 ft 151 kts 64°
2026-04-23 15:01 51.23092 -0.91000 2253 ft 142 kts 63°
2026-04-23 15:01 51.23557 -0.89655 2037 ft 138 kts 64°
2026-04-23 15:02 51.23862 -0.88755 1897 ft 136 kts 64°
2026-04-23 15:02 51.24432 -0.87054 1641 ft 120 kts 64°
2026-04-23 15:02 51.24800 -0.85959 1516 ft 111 kts 64°
2026-04-23 15:02 51.25162 -0.84873 1285 ft 109 kts 64°
2026-04-23 15:03 51.25514 -0.83813 1128 ft 107 kts 64°
2026-04-23 15:03 51.25862 -0.82771 963 ft 107 kts 63°
2026-04-23 15:03 51.26097 -0.82082 842 ft 106 kts 63°
2026-04-23 15:03 51.26577 -0.80675 624 ft 108 kts 63°
2026-04-23 15:04 51.26922 -0.79622 460 ft 106 kts 63°
2026-04-23 15:04 51.27265 -0.78583 286 ft 106 kts 63°
2026-04-23 15:04 51.27587 -0.77613 242 ft 88 kts 61°
2026-04-23 15:04 51.27741 -0.77148 241 ft 22 kts 62°
2026-04-23 15:05 51.27806 -0.77022 241 ft 14 kts 34°
2026-04-23 15:05 51.27900 -0.76920 241 ft 18 kts 34°
2026-04-23 15:05 51.28012 -0.76801 241 ft 10 kts 33°
2026-04-23 15:05 51.28064 -0.76822 241 ft 11 kts 286°
2026-04-23 15:06 51.28095 -0.76974 241 ft 16 kts 287°
2026-04-23 15:06 51.28136 -0.77179 241 ft 21 kts 289°
2026-04-23 15:06 51.28184 -0.77427 241 ft 18 kts 287°
2026-04-23 15:06 51.28223 -0.77557 241 ft 12 kts 293°
2026-04-23 15:07 51.28193 -0.77699 241 ft 16 kts 216°
2026-04-23 15:07 51.28089 -0.77811 241 ft 15 kts 215°
2026-04-23 15:07 51.28011 -0.77868 241 ft 14 kts 194°
2026-04-23 15:07 51.27923 -0.77905 241 ft 12 kts 215°
2026-04-23 15:08 51.27845 -0.77994 241 ft 10 kts 215°
2026-04-23 15:08 51.27783 -0.78065 241 ft 7 kts 217°
2026-04-23 15:08 51.27792 -0.78126 241 ft 4 kts 306°
2026-04-23 15:09 51.27793 -0.78130 241 ft 0 kts 305°